Location: Arleux
(50.3632°N, 2.8721°E)
Time: 10:35:24
(UTC+00:00)

ISS - Visible Passes

Search period start: 04 March 2021 00:00
Search period end: 14 March 2021 00:00
Orbit: 417 x 422 km, 51.6° (Epoch: 04 March)

Date Brightness Start Highest point End Pass type
(mag) Time Alt. Az. Time Alt. Az. Time Alt. Az.
04 Mar -0.4 03:09:46 12° ENE 03:09:46 12° ENE 03:10:03 10° ENE visible
04 Mar -3.6 04:42:43 44° WNW 04:43:36 69° N 04:46:58 10° E visible
05 Mar -2.5 03:57:03 41° ENE 03:57:03 41° ENE 03:59:26 10° E visible
05 Mar -3.8 05:30:01 13° WNW 05:32:59 78° SSW 05:36:20 10° ESE visible
06 Mar -0.6 03:11:24 14° ENE 03:11:24 14° ENE 03:11:55 10° E visible
06 Mar -3.8 04:44:21 39° WNW 04:45:29 85° NNE 04:48:51 10° ESE visible
07 Mar -2.9 03:58:44 49° E 03:58:44 49° E 04:01:20 10° E visible
07 Mar -3.2 05:31:42 11° W 05:34:42 43° SSW 05:37:55 10° SE visible
08 Mar -0.7 03:13:10 15° E 03:13:10 15° E 03:13:48 10° E visible
08 Mar -3.7 04:46:08 35° W 04:47:17 60° SSW 04:50:35 10° ESE visible
09 Mar -3.0 04:00:38 47° ESE 04:00:38 47° ESE 04:03:10 10° ESE visible
09 Mar -2.2 05:33:37 10° W 05:36:16 22° SW 05:38:54 10° SSE visible
10 Mar -0.7 03:15:14 13° ESE 03:15:14 13° ESE 03:15:40 10° ESE visible
10 Mar -2.8 04:48:12 28° WSW 04:48:54 31° SSW 04:51:54 10° SSE visible
11 Mar -2.2 04:02:56 26° SSE 04:02:56 26° SSE 04:04:42 10° SE visible
12 Mar -1.8 04:50:47 15° SSW 04:50:47 15° SSW 04:52:19 10° S visible
